Time,TemperatureF,DewpointF,PressureIn,WindDirection,WindDirectionDegrees,WindSpeedMPH,WindSpeedGustMPH,Humidity,HourlyPrecipIn,Conditions,Clouds,dailyrainin,SoftwareType,DateUTC
2013-05-01 00:05:00,37.4,24.8,30.43,South,173,5.0,5.0,60,0.00,,,0.00,Wunderground v.1.15,2013-05-01 07:05:00,
2013-05-01 00:11:00,37.3,25.1,30.43,South,173,3.0,4.0,61,0.00,,,0.00,Wunderground v.1.15,2013-05-01 07:11:00,
2013-05-01 00:16:00,36.9,24.7,30.43,South,173,4.0,4.0,61,0.00,,,0.00,Wunderground v.1.15,2013-05-01 07:16:00,
2013-05-01 00:22:00,36.6,24.8,30.44,SSE,162,4.0,6.0,62,0.00,,,0.00,Wunderground v.1.15,2013-05-01 07:22:00,
2013-05-01 00:27:00,36.4,24.6,30.44,SSE,164,3.0,6.0,62,0.00,,,0.00,Wunderground v.1.15,2013-05-01 07:27:00,
2013-05-01 00:33:00,36.5,24.7,30.44,SSE,164,3.0,4.0,62,0.00,,,0.00,Wunderground v.1.15,2013-05-01 07:33:00,
2013-05-01 00:39:00,36.3,24.9,30.44,South,184,6.0,6.0,63,0.00,,,0.00,Wunderground v.1.15,2013-05-01 07:39:00,
2013-05-01 00:45:00,35.9,24.9,30.44,South,183,5.0,5.0,64,0.00,,,0.00,Wunderground v.1.15,2013-05-01 07:45:00,
2013-05-01 00:51:00,35.5,25.3,30.45,South,181,2.0,4.0,66,0.00,,,0.00,Wunderground v.1.15,2013-05-01 07:51:00,
2013-05-01 00:56:00,35.1,25.2,30.45,South,181,0.0,4.0,67,0.00,,,0.00,Wunderground v.1.15,2013-05-01 07:56:00,
2013-05-01 01:02:00,34.8,25.3,30.45,South,181,1.0,2.0,68,0.00,,,0.00,Wunderground v.1.15,2013-05-01 08:02:00,
2013-05-01 01:07:00,34.7,25.2,30.45,South,181,2.0,3.0,68,0.00,,,0.00,Wunderground v.1.15,2013-05-01 08:07:00,
2013-05-01 01:13:00,34.8,25.3,30.45,South,181,0.0,2.0,68,0.00,,,0.00,Wunderground v.1.15,2013-05-01 08:13:00,
2013-05-01 01:18:00,34.9,25.4,30.45,South,181,2.0,2.0,68,0.00,,,0.00,Wunderground v.1.15,2013-05-01 08:18:00,
2013-05-01 01:23:00,34.9,25.4,30.45,South,181,4.0,4.0,68,0.00,,,0.00,Wunderground v.1.15,2013-05-01 08:23:00,
2013-05-01 01:29:00,35.1,25.6,30.46,South,181,2.0,4.0,68,0.00,,,0.00,Wunderground v.1.15,2013-05-01 08:29:00,
2013-05-01 01:35:00,35.5,25.6,30.46,South,181,4.0,4.0,67,0.00,,,0.00,Wunderground v.1.15,2013-05-01 08:35:00,
2013-05-01 01:40:00,35.5,25.6,30.46,South,170,5.0,5.0,67,0.00,,,0.00,Wunderground v.1.15,2013-05-01 08:40:00,
2013-05-01 01:46:00,35.2,26.0,30.46,South,175,4.0,6.0,69,0.00,,,0.00,Wunderground v.1.15,2013-05-01 08:46:00,
2013-05-01 01:52:00,34.7,25.9,30.46,South,175,2.0,4.0,70,0.00,,,0.00,Wunderground v.1.15,2013-05-01 08:52:00,
2013-05-01 01:57:00,34.3,25.9,30.46,South,175,2.0,4.0,71,0.00,,,0.00,Wunderground v.1.15,2013-05-01 08:57:00,
2013-05-01 02:02:00,33.9,25.8,30.47,South,175,4.0,4.0,72,0.00,,,0.00,Wunderground v.1.15,2013-05-01 09:02:00,
2013-05-01 02:07:00,34.1,26.0,30.47,South,175,2.0,5.0,72,0.00,,,0.00,Wunderground v.1.15,2013-05-01 09:07:00,
2013-05-01 02:12:00,34.2,26.1,30.47,South,175,0.0,3.0,72,0.00,,,0.00,Wunderground v.1.15,2013-05-01 09:12:00,
2013-05-01 02:17:00,34.4,26.3,30.47,South,175,4.0,5.0,72,0.00,,,0.00,Wunderground v.1.15,2013-05-01 09:17:00,
2013-05-01 02:22:00,34.3,26.2,30.47,South,175,5.0,5.0,72,0.00,,,0.00,Wunderground v.1.15,2013-05-01 09:22:00,
2013-05-01 02:27:00,34.4,26.6,30.47,SSE,157,3.0,5.0,73,0.00,,,0.00,Wunderground v.1.15,2013-05-01 09:27:00,
2013-05-01 02:32:00,34.3,26.5,30.47,SSE,157,3.0,5.0,73,0.00,,,0.00,Wunderground v.1.15,2013-05-01 09:32:00,
2013-05-01 02:37:00,33.9,26.5,30.47,SSE,162,5.0,6.0,74,0.00,,,0.00,Wunderground v.1.15,2013-05-01 09:37:00,
2013-05-01 02:42:00,33.7,26.6,30.47,SSE,162,2.0,4.0,75,0.00,,,0.00,Wunderground v.1.15,2013-05-01 09:42:00,
2013-05-01 02:47:00,33.5,26.7,30.48,SSE,162,2.0,4.0,76,0.00,,,0.00,Wunderground v.1.15,2013-05-01 09:47:00,
2013-05-01 02:52:00,33.7,27.3,30.48,SSE,162,3.0,3.0,77,0.00,,,0.00,Wunderground v.1.15,2013-05-01 09:52:00,
2013-05-01 02:57:00,33.7,27.3,30.48,SSE,162,5.0,6.0,77,0.00,,,0.00,Wunderground v.1.15,2013-05-01 09:57:00,
2013-05-01 03:02:00,33.7,27.3,30.48,South,180,3.0,6.0,77,0.00,,,0.00,Wunderground v.1.15,2013-05-01 10:02:00,
2013-05-01 03:07:00,33.4,27.0,30.48,South,180,1.0,6.0,77,0.00,,,0.00,Wunderground v.1.15,2013-05-01 10:07:00,
2013-05-01 03:12:00,33.1,27.0,30.49,South,180,2.0,2.0,78,0.00,,,0.00,Wunderground v.1.15,2013-05-01 10:12:00,
2013-05-01 03:17:00,33.0,27.2,30.49,South,180,2.0,3.0,79,0.00,,,0.00,Wunderground v.1.15,2013-05-01 10:17:00,
2013-05-01 03:23:00,32.9,27.4,30.49,South,180,0.0,2.0,80,0.00,,,0.00,Wunderground v.1.15,2013-05-01 10:23:00,
2013-05-01 03:28:00,32.7,27.2,30.49,South,180,0.0,2.0,80,0.00,,,0.00,Wunderground v.1.15,2013-05-01 10:28:00,
2013-05-01 03:34:00,32.5,27.6,30.49,South,180,1.0,2.0,82,0.00,,,0.00,Wunderground v.1.15,2013-05-01 10:34:00,
2013-05-01 03:39:00,32.5,27.6,30.50,South,180,0.0,2.0,82,0.00,,,0.00,Wunderground v.1.15,2013-05-01 10:39:00,
2013-05-01 03:44:00,32.4,27.5,30.50,South,180,0.0,1.0,82,0.00,,,0.00,Wunderground v.1.15,2013-05-01 10:44:00,
2013-05-01 03:49:00,32.3,27.7,30.50,South,180,0.0,1.0,83,0.00,,,0.00,Wunderground v.1.15,2013-05-01 10:49:00,
2013-05-01 03:54:00,32.2,27.6,30.50,South,180,0.0,0.0,83,0.00,,,0.00,Wunderground v.1.15,2013-05-01 10:54:00,
2013-05-01 03:59:00,32.1,27.5,30.50,South,180,0.0,0.0,83,0.00,,,0.00,Wunderground v.1.15,2013-05-01 10:59:00,
2013-05-01 04:04:00,32.1,27.5,30.50,South,180,0.0,0.0,83,0.00,,,0.00,Wunderground v.1.15,2013-05-01 11:04:00,
2013-05-01 04:09:00,32.1,27.5,30.51,South,180,0.0,0.0,83,0.00,,,0.00,Wunderground v.1.15,2013-05-01 11:09:00,
2013-05-01 04:14:00,32.1,27.8,30.51,South,180,0.0,0.0,84,0.00,,,0.00,Wunderground v.1.15,2013-05-01 11:14:00,
2013-05-01 04:19:00,32.0,27.7,30.52,South,180,1.0,1.0,84,0.00,,,0.00,Wunderground v.1.15,2013-05-01 11:19:00,
2013-05-01 04:24:00,31.9,27.6,30.51,South,180,1.0,2.0,84,0.00,,,0.00,Wunderground v.1.15,2013-05-01 11:24:00,
2013-05-01 04:29:00,31.8,27.5,30.52,South,180,0.0,2.0,84,0.00,,,0.00,Wunderground v.1.15,2013-05-01 11:29:00,
2013-05-01 04:34:00,31.7,27.4,30.52,South,180,0.0,1.0,84,0.00,,,0.00,Wunderground v.1.15,2013-05-01 11:34:00,
2013-05-01 04:39:00,31.7,27.4,30.52,South,180,0.0,1.0,84,0.00,,,0.00,Wunderground v.1.15,2013-05-01 11:39:00,
2013-05-01 04:44:00,31.6,27.3,30.53,South,180,0.0,0.0,84,0.00,,,0.00,Wunderground v.1.15,2013-05-01 11:44:00,
2013-05-01 04:49:00,31.6,27.3,30.53,South,180,0.0,0.0,84,0.00,,,0.00,Wunderground v.1.15,2013-05-01 11:49:00,
2013-05-01 04:54:00,31.5,27.2,30.53,South,180,0.0,0.0,84,0.00,,,0.00,Wunderground v.1.15,2013-05-01 11:54:00,
2013-05-01 04:59:00,31.4,27.1,30.53,South,180,0.0,0.0,84,0.00,,,0.00,Wunderground v.1.15,2013-05-01 11:59:00,
2013-05-01 05:04:00,31.4,27.4,30.53,South,180,0.0,0.0,85,0.00,,,0.00,Wunderground v.1.15,2013-05-01 12:04:00,
2013-05-01 05:10:00,31.6,27.6,30.54,South,180,0.0,0.0,85,0.00,,,0.00,Wunderground v.1.15,2013-05-01 12:10:00,
2013-05-01 05:15:00,31.7,27.7,30.54,South,180,0.0,0.0,85,0.00,,,0.00,Wunderground v.1.15,2013-05-01 12:15:00,
2013-05-01 05:20:00,31.6,27.3,30.55,South,180,0.0,0.0,84,0.00,,,0.00,Wunderground v.1.15,2013-05-01 12:20:00,
2013-05-01 05:25:00,31.4,27.1,30.55,South,180,0.0,0.0,84,0.00,,,0.00,Wunderground v.1.15,2013-05-01 12:25:00,
2013-05-01 05:30:00,31.2,26.9,30.55,South,180,0.0,0.0,84,0.00,,,0.00,Wunderground v.1.15,2013-05-01 12:30:00,
2013-05-01 05:35:00,30.9,26.9,30.55,South,180,0.0,0.0,85,0.00,,,0.00,Wunderground v.1.15,2013-05-01 12:35:00,
2013-05-01 05:40:00,30.8,26.8,30.56,South,180,0.0,0.0,85,0.00,,,0.00,Wunderground v.1.15,2013-05-01 12:40:00,
2013-05-01 05:45:00,30.7,27.0,30.56,South,180,0.0,0.0,86,0.00,,,0.00,Wunderground v.1.15,2013-05-01 12:45:00,
2013-05-01 05:50:00,30.9,27.2,30.56,South,180,0.0,0.0,86,0.00,,,0.00,Wunderground v.1.15,2013-05-01 12:50:00,
2013-05-01 05:55:00,31.3,27.3,30.56,South,180,0.0,0.0,85,0.00,,,0.00,Wunderground v.1.15,2013-05-01 12:55:00,
2013-05-01 06:00:00,31.5,27.2,30.57,South,180,0.0,0.0,84,0.00,,,0.00,Wunderground v.1.15,2013-05-01 13:00:00,
2013-05-01 06:05:00,31.4,26.8,30.57,South,180,1.0,1.0,83,0.00,,,0.00,Wunderground v.1.15,2013-05-01 13:05:00,
2013-05-01 06:10:00,31.3,26.7,30.57,South,180,1.0,2.0,83,0.00,,,0.00,Wunderground v.1.15,2013-05-01 13:10:00,
2013-05-01 06:15:00,31.3,26.7,30.57,South,180,1.0,2.0,83,0.00,,,0.00,Wunderground v.1.15,2013-05-01 13:15:00,
2013-05-01 06:20:00,31.4,26.8,30.58,South,180,1.0,1.0,83,0.00,,,0.00,Wunderground v.1.15,2013-05-01 13:20:00,
2013-05-01 06:25:00,31.4,26.8,30.58,South,180,1.0,2.0,83,0.00,,,0.00,Wunderground v.1.15,2013-05-01 13:25:00,
2013-05-01 06:30:00,31.2,26.9,30.58,South,180,2.0,2.0,84,0.00,,,0.00,Wunderground v.1.15,2013-05-01 13:30:00,
2013-05-01 06:35:00,31.1,27.1,30.58,South,180,1.0,3.0,85,0.00,,,0.00,Wunderground v.1.15,2013-05-01 13:35:00,
2013-05-01 06:40:00,31.1,26.8,30.58,NNE,26,4.0,4.0,84,0.00,,,0.00,Wunderground v.1.15,2013-05-01 13:40:00,
2013-05-01 06:46:00,31.1,27.1,30.59,NNE,26,2.0,4.0,85,0.00,,,0.00,Wunderground v.1.15,2013-05-01 13:46:00,
2013-05-01 06:51:00,31.0,27.0,30.59,NNE,26,2.0,3.0,85,0.00,,,0.00,Wunderground v.1.15,2013-05-01 13:51:00,
2013-05-01 06:56:00,30.9,26.9,30.60,NNE,32,5.0,5.0,85,0.00,,,0.00,Wunderground v.1.15,2013-05-01 13:56:00,
2013-05-01 07:01:00,30.8,26.8,30.60,NE,44,5.0,6.0,85,0.00,,,0.00,Wunderground v.1.15,2013-05-01 14:01:00,
2013-05-01 07:06:00,31.0,27.3,30.60,NE,38,4.0,6.0,86,0.00,,,0.00,Wunderground v.1.15,2013-05-01 14:06:00,
2013-05-01 07:11:00,31.0,26.7,30.60,NE,38,5.0,7.0,84,0.00,,,0.00,Wunderground v.1.15,2013-05-01 14:11:00,
2013-05-01 07:16:00,31.1,27.1,30.61,NE,36,7.0,7.0,85,0.00,,,0.00,Wunderground v.1.15,2013-05-01 14:16:00,
2013-05-01 07:21:00,31.3,27.0,30.61,NNE,28,4.0,7.0,84,0.00,,,0.00,Wunderground v.1.15,2013-05-01 14:21:00,
2013-05-01 07:26:00,31.6,27.3,30.61,NE,40,6.0,7.0,84,0.00,,,0.00,Wunderground v.1.15,2013-05-01 14:26:00,
2013-05-01 07:31:00,31.5,27.2,30.61,NE,35,4.0,7.0,84,0.00,,,0.00,Wunderground v.1.15,2013-05-01 14:31:00,
2013-05-01 07:36:00,31.9,27.0,30.62,NE,50,5.0,7.0,82,0.00,,,0.00,Wunderground v.1.15,2013-05-01 14:36:00,
2013-05-01 07:42:00,32.3,27.4,30.62,NNE,17,4.0,7.0,82,0.00,,,0.00,Wunderground v.1.15,2013-05-01 14:42:00,
2013-05-01 07:47:00,33.0,28.1,30.62,NNE,19,3.0,7.0,82,0.00,,,0.00,Wunderground v.1.15,2013-05-01 14:47:00,
2013-05-01 07:52:00,33.8,28.3,30.63,NE,35,4.0,5.0,80,0.00,,,0.00,Wunderground v.1.15,2013-05-01 14:52:00,
2013-05-01 07:57:00,34.3,28.5,30.63,NE,43,4.0,6.0,79,0.00,,,0.00,Wunderground v.1.15,2013-05-01 14:57:00,
2013-05-01 08:02:00,34.8,29.0,30.63,NE,35,0.0,4.0,79,0.00,,,0.00,Wunderground v.1.15,2013-05-01 15:02:00,
2013-05-01 08:07:00,35.3,29.1,30.63,NE,41,0.0,5.0,78,0.00,,,0.00,Wunderground v.1.15,2013-05-01 15:07:00,
2013-05-01 08:12:00,36.2,29.4,30.63,NE,41,0.0,2.0,76,0.00,,,0.00,Wunderground v.1.15,2013-05-01 15:12:00,
2013-05-01 08:17:00,36.8,29.3,30.64,SE,133,4.0,7.0,74,0.00,,,0.00,Wunderground v.1.15,2013-05-01 15:17:00,
2013-05-01 08:22:00,37.1,29.2,30.64,ESE,112,3.0,4.0,73,0.00,,,0.00,Wunderground v.1.15,2013-05-01 15:22:00,
2013-05-01 08:27:00,37.4,29.5,30.64,SE,126,2.0,7.0,73,0.00,,,0.00,Wunderground v.1.15,2013-05-01 15:27:00,
2013-05-01 08:32:00,37.9,29.3,30.64,ESE,115,7.0,9.0,71,0.00,,,0.00,Wunderground v.1.15,2013-05-01 15:32:00,
2013-05-01 08:37:00,38.2,29.3,30.64,SSE,167,2.0,9.0,70,0.00,,,0.00,Wunderground v.1.15,2013-05-01 15:37:00,
2013-05-01 08:42:00,38.3,29.4,30.64,South,183,3.0,8.0,70,0.00,,,0.00,Wunderground v.1.15,2013-05-01 15:42:00,
2013-05-01 08:47:00,38.7,29.8,30.65,SSE,155,7.0,9.0,70,0.00,,,0.00,Wunderground v.1.15,2013-05-01 15:47:00,
2013-05-01 08:52:00,38.5,29.6,30.65,South,180,2.0,7.0,70,0.00,,,0.00,Wunderground v.1.15,2013-05-01 15:52:00,
2013-05-01 08:57:00,38.7,29.8,30.65,SSW,209,6.0,8.0,70,0.00,,,0.00,Wunderground v.1.15,2013-05-01 15:57:00,
2013-05-01 09:02:00,38.9,29.6,30.65,SSW,197,7.0,7.0,69,0.00,,,0.00,Wunderground v.1.15,2013-05-01 16:02:00,
2013-05-01 09:07:00,38.9,29.6,30.65,South,190,6.0,7.0,69,0.00,,,0.00,Wunderground v.1.15,2013-05-01 16:07:00,
2013-05-01 09:12:00,39.1,29.8,30.65,SSW,206,4.0,7.0,69,0.00,,,0.00,Wunderground v.1.15,2013-05-01 16:12:00,
2013-05-01 09:17:00,39.7,29.6,30.65,SE,145,5.0,7.0,67,0.00,,,0.00,Wunderground v.1.15,2013-05-01 16:17:00,
2013-05-01 09:22:00,40.2,29.7,30.65,SSW,202,3.0,5.0,66,0.00,,,0.00,Wunderground v.1.15,2013-05-01 16:22:00,
2013-05-01 09:27:00,40.7,29.8,30.66,SE,140,0.0,6.0,65,0.00,,,0.00,Wunderground v.1.15,2013-05-01 16:27:00,
2013-05-01 09:32:00,41.4,30.5,30.66,SE,136,5.0,6.0,65,0.00,,,0.00,Wunderground v.1.15,2013-05-01 16:32:00,
2013-05-01 09:38:00,41.4,30.1,30.66,South,177,2.0,6.0,64,0.00,,,0.00,Wunderground v.1.15,2013-05-01 16:38:00,
2013-05-01 09:43:00,41.6,29.5,30.66,South,179,6.0,6.0,62,0.00,,,0.00,Wunderground v.1.15,2013-05-01 16:43:00,
2013-05-01 09:48:00,41.8,29.7,30.66,South,181,3.0,8.0,62,0.00,,,0.00,Wunderground v.1.15,2013-05-01 16:48:00,
2013-05-01 09:54:00,42.7,31.0,30.66,ESE,113,7.0,7.0,63,0.00,,,0.00,Wunderground v.1.15,2013-05-01 16:54:00,
2013-05-01 09:59:00,42.9,29.5,30.66,ESE,117,8.0,8.0,59,0.00,,,0.00,Wunderground v.1.15,2013-05-01 16:59:00,
2013-05-01 10:04:00,42.9,29.1,30.66,SE,146,5.0,9.0,58,0.00,,,0.00,Wunderground v.1.15,2013-05-01 17:04:00,
2013-05-01 10:09:00,43.1,29.3,30.66,SE,125,3.0,9.0,58,0.00,,,0.00,Wunderground v.1.15,2013-05-01 17:09:00,
2013-05-01 10:14:00,43.8,30.0,30.66,SE,125,4.0,6.0,58,0.00,,,0.00,Wunderground v.1.15,2013-05-01 17:14:00,
2013-05-01 10:19:00,44.2,28.1,30.66,SE,127,0.0,7.0,53,0.00,,,0.00,Wunderground v.1.15,2013-05-01 17:19:00,
2013-05-01 10:24:00,44.3,29.1,30.66,South,175,0.0,6.0,55,0.00,,,0.00,Wunderground v.1.15,2013-05-01 17:24:00,
2013-05-01 10:29:00,44.6,28.5,30.67,WSW,251,0.0,6.0,53,0.00,,,0.00,Wunderground v.1.15,2013-05-01 17:29:00,
2013-05-01 10:34:00,45.2,28.6,30.66,ESE,123,4.0,7.0,52,0.00,,,0.00,Wunderground v.1.15,2013-05-01 17:34:00,
2013-05-01 10:39:00,45.4,27.8,30.66,East,96,8.0,8.0,50,0.00,,,0.00,Wunderground v.1.15,2013-05-01 17:39:00,
2013-05-01 10:44:00,45.3,27.7,30.66,SSE,161,3.0,7.0,50,0.00,,,0.00,Wunderground v.1.15,2013-05-01 17:44:00,
2013-05-01 10:49:00,45.6,26.5,30.66,SSE,158,4.0,8.0,47,0.00,,,0.00,Wunderground v.1.15,2013-05-01 17:49:00,
2013-05-01 10:54:00,46.0,27.4,30.66,SSE,159,2.0,4.0,48,0.00,,,0.00,Wunderground v.1.15,2013-05-01 17:54:00,
2013-05-01 10:59:00,46.3,24.4,30.66,South,171,0.0,6.0,42,0.00,,,0.00,Wunderground v.1.15,2013-05-01 17:59:00,
2013-05-01 11:04:00,46.9,26.1,30.66,South,171,0.0,4.0,44,0.00,,,0.00,Wunderground v.1.15,2013-05-01 18:04:00,
2013-05-01 11:09:00,47.4,25.4,30.66,SSW,192,0.0,7.0,42,0.00,,,0.00,Wunderground v.1.15,2013-05-01 18:09:00,
2013-05-01 11:14:00,47.5,26.6,30.66,South,188,6.0,8.0,44,0.00,,,0.00,Wunderground v.1.15,2013-05-01 18:14:00,
2013-05-01 11:19:00,47.2,23.5,30.66,South,171,0.0,8.0,39,0.00,,,0.00,Wunderground v.1.15,2013-05-01 18:19:00,
2013-05-01 11:24:00,47.4,23.0,30.66,SE,136,4.0,6.0,38,0.00,,,0.00,Wunderground v.1.15,2013-05-01 18:24:00,
2013-05-01 11:29:00,47.6,22.6,30.66,SW,227,6.0,7.0,37,0.00,,,0.00,Wunderground v.1.15,2013-05-01 18:29:00,
2013-05-01 11:34:00,47.4,22.4,30.66,SW,231,6.0,12.0,37,0.00,,,0.00,Wunderground v.1.15,2013-05-01 18:34:00,
2013-05-01 11:39:00,47.8,23.4,30.66,SSE,150,3.0,5.0,38,0.00,,,0.00,Wunderground v.1.15,2013-05-01 18:39:00,
2013-05-01 11:45:00,48.2,23.1,30.66,SSE,151,2.0,5.0,37,0.00,,,0.00,Wunderground v.1.15,2013-05-01 18:45:00,
2013-05-01 11:50:00,49.1,21.9,30.66,SE,143,0.0,1.0,34,0.00,,,0.00,Wunderground v.1.15,2013-05-01 18:50:00,
2013-05-01 11:55:00,49.4,22.2,30.66,NNW,346,3.0,5.0,34,0.00,,,0.00,Wunderground v.1.15,2013-05-01 18:55:00,
2013-05-01 12:00:00,49.7,23.1,30.66,NW,319,1.0,6.0,35,0.00,,,0.00,Wunderground v.1.15,2013-05-01 19:00:00,
2013-05-01 12:05:00,49.6,20.2,30.66,NW,313,2.0,10.0,31,0.00,,,0.00,Wunderground v.1.15,2013-05-01 19:05:00,
2013-05-01 12:10:00,49.4,21.5,30.66,WNW,301,0.0,5.0,33,0.00,,,0.00,Wunderground v.1.15,2013-05-01 19:10:00,
2013-05-01 12:15:00,48.9,19.5,30.66,WNW,286,6.0,11.0,31,0.00,,,0.00,Wunderground v.1.15,2013-05-01 19:15:00,
2013-05-01 12:20:00,48.6,19.3,30.66,WNW,300,2.0,6.0,31,0.00,,,0.00,Wunderground v.1.15,2013-05-01 19:20:00,
2013-05-01 12:25:00,49.1,21.2,30.66,NE,44,4.0,6.0,33,0.00,,,0.00,Wunderground v.1.15,2013-05-01 19:25:00,
2013-05-01 12:30:00,49.0,21.1,30.66,ENE,59,1.0,3.0,33,0.00,,,0.00,Wunderground v.1.15,2013-05-01 19:30:00,
2013-05-01 12:35:00,49.6,21.6,30.66,NW,323,5.0,7.0,33,0.00,,,0.00,Wunderground v.1.15,2013-05-01 19:35:00,
2013-05-01 12:40:00,49.3,22.1,30.66,NNE,28,0.0,4.0,34,0.00,,,0.00,Wunderground v.1.15,2013-05-01 19:40:00,
2013-05-01 12:45:00,49.6,22.3,30.65,SSW,207,6.0,7.0,34,0.00,,,0.00,Wunderground v.1.15,2013-05-01 19:45:00,
2013-05-01 12:50:00,49.7,23.1,30.65,East,98,5.0,5.0,35,0.00,,,0.00,Wunderground v.1.15,2013-05-01 19:50:00,
2013-05-01 12:55:00,50.1,22.8,30.65,SSE,149,3.0,7.0,34,0.00,,,0.00,Wunderground v.1.15,2013-05-01 19:55:00,
2013-05-01 13:00:00,50.2,23.6,30.65,SW,215,11.0,11.0,35,0.00,,,0.00,Wunderground v.1.15,2013-05-01 20:00:00,
2013-05-01 13:05:00,50.3,23.0,30.65,SSW,194,5.0,11.0,34,0.00,,,0.00,Wunderground v.1.15,2013-05-01 20:05:00,
2013-05-01 13:10:00,50.3,23.0,30.65,WSW,248,3.0,6.0,34,0.00,,,0.00,Wunderground v.1.15,2013-05-01 20:10:00,
2013-05-01 13:15:00,51.0,22.9,30.65,WSW,242,8.0,11.0,33,0.00,,,0.00,Wunderground v.1.15,2013-05-01 20:15:00,
2013-05-01 13:20:00,50.8,23.4,30.65,SSE,161,5.0,7.0,34,0.00,,,0.00,Wunderground v.1.15,2013-05-01 20:20:00,
2013-05-01 13:25:00,50.4,23.1,30.65,NNE,31,2.0,7.0,34,0.00,,,0.00,Wunderground v.1.15,2013-05-01 20:25:00,
2013-05-01 13:30:00,50.6,22.5,30.65,South,187,4.0,5.0,33,0.00,,,0.00,Wunderground v.1.15,2013-05-01 20:30:00,
2013-05-01 13:35:00,51.0,21.4,30.65,SSW,202,3.0,10.0,31,0.00,,,0.00,Wunderground v.1.15,2013-05-01 20:35:00,
2013-05-01 13:40:00,51.2,22.3,30.65,SE,146,3.0,6.0,32,0.00,,,0.00,Wunderground v.1.15,2013-05-01 20:40:00,
2013-05-01 13:45:00,51.2,21.6,30.65,East,96,0.0,8.0,31,0.00,,,0.00,Wunderground v.1.15,2013-05-01 20:45:00,
2013-05-01 13:50:00,51.8,24.3,30.65,South,186,7.0,9.0,34,0.00,,,0.00,Wunderground v.1.15,2013-05-01 20:50:00,
2013-05-01 13:55:00,52.3,23.3,30.65,SW,234,6.0,12.0,32,0.00,,,0.00,Wunderground v.1.15,2013-05-01 20:55:00,
2013-05-01 14:00:00,52.5,22.7,30.65,West,269,6.0,7.0,31,0.00,,,0.00,Wunderground v.1.15,2013-05-01 21:00:00,
2013-05-01 14:05:00,52.0,22.3,30.65,SSW,196,1.0,14.0,31,0.00,,,0.00,Wunderground v.1.15,2013-05-01 21:05:00,
2013-05-01 14:10:00,52.3,23.3,30.65,West,277,11.0,12.0,32,0.00,,,0.00,Wunderground v.1.15,2013-05-01 21:10:00,
2013-05-01 14:15:00,53.3,22.6,30.66,WSW,241,5.0,12.0,30,0.00,,,0.00,Wunderground v.1.15,2013-05-01 21:15:00,
2013-05-01 14:21:00,53.0,21.6,30.65,SSW,203,9.0,10.0,29,0.00,,,0.00,Wunderground v.1.15,2013-05-01 21:21:00,
2013-05-01 14:26:00,52.5,21.9,30.65,SSW,194,9.0,11.0,30,0.00,,,0.00,Wunderground v.1.15,2013-05-01 21:26:00,
2013-05-01 14:31:00,52.3,20.9,30.65,SSW,213,6.0,7.0,29,0.00,,,0.00,Wunderground v.1.15,2013-05-01 21:31:00,
2013-05-01 14:36:00,52.6,22.0,30.65,SSW,207,8.0,12.0,30,0.00,,,0.00,Wunderground v.1.15,2013-05-01 21:36:00,
2013-05-01 14:41:00,52.4,22.6,30.65,WNW,287,8.0,8.0,31,0.00,,,0.00,Wunderground v.1.15,2013-05-01 21:41:00,
2013-05-01 14:46:00,52.7,23.6,30.65,SW,215,7.0,11.0,32,0.00,,,0.00,Wunderground v.1.15,2013-05-01 21:46:00,
2013-05-01 14:51:00,53.2,21.7,30.65,SSW,197,6.0,7.0,29,0.00,,,0.00,Wunderground v.1.15,2013-05-01 21:51:00,
2013-05-01 14:56:00,53.1,21.6,30.65,SSW,213,7.0,11.0,29,0.00,,,0.00,Wunderground v.1.15,2013-05-01 21:56:00,
2013-05-01 15:01:00,53.3,22.6,30.66,SSW,213,4.0,7.0,30,0.00,,,0.00,Wunderground v.1.15,2013-05-01 22:01:00,
2013-05-01 15:06:00,53.8,23.1,30.65,West,262,5.0,9.0,30,0.00,,,0.00,Wunderground v.1.15,2013-05-01 22:06:00,
2013-05-01 15:12:00,54.1,21.7,30.65,West,269,12.0,12.0,28,0.00,,,0.00,Wunderground v.1.15,2013-05-01 22:12:00,
2013-05-01 15:17:00,53.9,21.5,30.65,SW,220,4.0,12.0,28,0.00,,,0.00,Wunderground v.1.15,2013-05-01 22:17:00,
2013-05-01 15:22:00,53.9,20.6,30.65,SW,222,2.0,6.0,27,0.00,,,0.00,Wunderground v.1.15,2013-05-01 22:22:00,
2013-05-01 15:27:00,54.2,21.8,30.65,SSW,193,7.0,8.0,28,0.00,,,0.00,Wunderground v.1.15,2013-05-01 22:27:00,
2013-05-01 15:32:00,54.0,22.4,30.65,South,186,2.0,9.0,29,0.00,,,0.00,Wunderground v.1.15,2013-05-01 22:32:00,
2013-05-01 15:37:00,54.8,23.9,30.65,SW,232,6.0,9.0,30,0.00,,,0.00,Wunderground v.1.15,2013-05-01 22:37:00,
2013-05-01 15:42:00,54.4,21.9,30.65,South,188,2.0,9.0,28,0.00,,,0.00,Wunderground v.1.15,2013-05-01 22:42:00,
2013-05-01 15:47:00,54.4,21.9,30.64,SW,215,8.0,11.0,28,0.00,,,0.00,Wunderground v.1.15,2013-05-01 22:47:00,
2013-05-01 15:52:00,54.5,23.7,30.64,SW,215,4.0,6.0,30,0.00,,,0.00,Wunderground v.1.15,2013-05-01 22:52:00,
2013-05-01 15:57:00,54.8,23.1,30.64,SSW,211,7.0,14.0,29,0.00,,,0.00,Wunderground v.1.15,2013-05-01 22:57:00,
2013-05-01 16:02:00,54.6,22.9,30.64,SSE,161,5.0,9.0,29,0.00,,,0.00,Wunderground v.1.15,2013-05-01 23:02:00,
2013-05-01 16:07:00,54.8,23.9,30.64,South,181,8.0,12.0,30,0.00,,,0.00,Wunderground v.1.15,2013-05-01 23:07:00,
2013-05-01 16:12:00,54.6,22.9,30.64,SSW,197,4.0,12.0,29,0.00,,,0.00,Wunderground v.1.15,2013-05-01 23:12:00,
2013-05-01 16:17:00,54.5,22.0,30.64,South,178,9.0,13.0,28,0.00,,,0.00,Wunderground v.1.15,2013-05-01 23:17:00,
2013-05-01 16:22:00,54.1,21.7,30.64,East,80,13.0,13.0,28,0.00,,,0.00,Wunderground v.1.15,2013-05-01 23:22:00,
2013-05-01 16:27:00,54.8,23.1,30.64,West,277,8.0,22.0,29,0.00,,,0.00,Wunderground v.1.15,2013-05-01 23:27:00,
2013-05-01 16:32:00,54.9,21.5,30.64,WSW,246,4.0,12.0,27,0.00,,,0.00,Wunderground v.1.15,2013-05-01 23:32:00,
2013-05-01 16:37:00,55.4,21.9,30.64,SW,226,5.0,12.0,27,0.00,,,0.00,Wunderground v.1.15,2013-05-01 23:37:00,
2013-05-01 16:42:00,55.0,21.6,30.64,SSW,193,7.0,10.0,27,0.00,,,0.00,Wunderground v.1.15,2013-05-01 23:42:00,
2013-05-01 16:47:00,55.5,21.1,30.64,WNW,290,4.0,11.0,26,0.00,,,0.00,Wunderground v.1.15,2013-05-01 23:47:00,
2013-05-01 16:52:00,55.8,22.3,30.64,West,278,0.0,7.0,27,0.00,,,0.00,Wunderground v.1.15,2013-05-01 23:52:00,
2013-05-01 16:57:00,56.2,22.6,30.64,WNW,289,3.0,8.0,27,0.00,,,0.00,Wunderground v.1.15,2013-05-01 23:57:00,
2013-05-01 17:02:00,55.9,21.5,30.64,SSW,212,2.0,8.0,26,0.00,,,0.00,Wunderground v.1.15,2013-05-02 00:02:00,
2013-05-01 17:07:00,55.5,21.1,30.64,SSW,195,9.0,10.0,26,0.00,,,0.00,Wunderground v.1.15,2013-05-02 00:07:00,
2013-05-01 17:12:00,55.1,21.7,30.64,SSW,193,7.0,13.0,27,0.00,,,0.00,Wunderground v.1.15,2013-05-02 00:12:00,
2013-05-01 17:17:00,55.5,22.0,30.64,SSW,200,10.0,13.0,27,0.00,,,0.00,Wunderground v.1.15,2013-05-02 00:17:00,
2013-05-01 17:22:00,55.5,22.0,30.64,SW,219,4.0,8.0,27,0.00,,,0.00,Wunderground v.1.15,2013-05-02 00:22:00,
2013-05-01 17:27:00,55.4,21.9,30.64,SSW,207,10.0,11.0,27,0.00,,,0.00,Wunderground v.1.15,2013-05-02 00:27:00,
2013-05-01 17:32:00,55.0,21.6,30.64,SSW,204,2.0,10.0,27,0.00,,,0.00,Wunderground v.1.15,2013-05-02 00:32:00,
2013-05-01 17:38:00,55.4,22.8,30.64,WSW,257,8.0,14.0,28,0.00,,,0.00,Wunderground v.1.15,2013-05-02 00:38:00,
2013-05-01 17:43:00,55.3,21.0,30.64,WSW,240,2.0,12.0,26,0.00,,,0.00,Wunderground v.1.15,2013-05-02 00:43:00,
2013-05-01 17:48:00,55.6,21.2,30.64,West,267,7.0,12.0,26,0.00,,,0.00,Wunderground v.1.15,2013-05-02 00:48:00,
2013-05-01 17:53:00,55.7,21.3,30.64,SSW,203,8.0,13.0,26,0.00,,,0.00,Wunderground v.1.15,2013-05-02 00:53:00,
2013-05-01 17:58:00,55.3,22.7,30.64,SW,234,8.0,13.0,28,0.00,,,0.00,Wunderground v.1.15,2013-05-02 00:58:00,
2013-05-01 18:04:00,55.4,21.9,30.64,SSW,200,11.0,12.0,27,0.00,,,0.00,Wunderground v.1.15,2013-05-02 01:04:00,
2013-05-01 18:09:00,55.3,21.0,30.64,SW,225,8.0,12.0,26,0.00,,,0.00,Wunderground v.1.15,2013-05-02 01:09:00,
2013-05-01 18:14:00,55.1,20.8,30.64,SSW,192,4.0,11.0,26,0.00,,,0.00,Wunderground v.1.15,2013-05-02 01:14:00,
2013-05-01 18:19:00,54.9,21.5,30.64,SSW,212,8.0,12.0,27,0.00,,,0.00,Wunderground v.1.15,2013-05-02 01:19:00,
2013-05-01 18:24:00,55.0,20.7,30.64,SSW,200,7.0,11.0,26,0.00,,,0.00,Wunderground v.1.15,2013-05-02 01:24:00,
2013-05-01 18:29:00,54.8,21.4,30.64,South,188,6.0,11.0,27,0.00,,,0.00,Wunderground v.1.15,2013-05-02 01:29:00,
2013-05-01 18:34:00,54.9,20.6,30.64,SW,223,8.0,11.0,26,0.00,,,0.00,Wunderground v.1.15,2013-05-02 01:34:00,
2013-05-01 18:39:00,55.0,21.6,30.64,SSW,209,6.0,11.0,27,0.00,,,0.00,Wunderground v.1.15,2013-05-02 01:39:00,
2013-05-01 18:44:00,55.0,21.6,30.64,SW,218,7.0,11.0,27,0.00,,,0.00,Wunderground v.1.15,2013-05-02 01:44:00,
2013-05-01 18:49:00,54.9,20.6,30.64,SW,217,5.0,11.0,26,0.00,,,0.00,Wunderground v.1.15,2013-05-02 01:49:00,
2013-05-01 18:54:00,54.9,22.4,30.64,SSW,193,6.0,10.0,28,0.00,,,0.00,Wunderground v.1.15,2013-05-02 01:54:00,
2013-05-01 18:59:00,54.9,21.5,30.64,SSW,213,8.0,10.0,27,0.00,,,0.00,Wunderground v.1.15,2013-05-02 01:59:00,
2013-05-01 19:04:00,54.8,21.4,30.64,SW,221,8.0,11.0,27,0.00,,,0.00,Wunderground v.1.15,2013-05-02 02:04:00,
2013-05-01 19:09:00,54.9,21.5,30.64,WSW,248,4.0,11.0,27,0.00,,,0.00,Wunderground v.1.15,2013-05-02 02:09:00,
2013-05-01 19:14:00,54.9,20.6,30.64,WSW,242,6.0,6.0,26,0.00,,,0.00,Wunderground v.1.15,2013-05-02 02:14:00,
2013-05-01 19:19:00,54.7,22.2,30.64,SSW,207,5.0,6.0,28,0.00,,,0.00,Wunderground v.1.15,2013-05-02 02:19:00,
2013-05-01 19:24:00,54.3,22.7,30.64,SSW,196,6.0,7.0,29,0.00,,,0.00,Wunderground v.1.15,2013-05-02 02:24:00,
2013-05-01 19:29:00,54.0,23.2,30.64,South,185,8.0,9.0,30,0.00,,,0.00,Wunderground v.1.15,2013-05-02 02:29:00,
2013-05-01 19:34:00,53.8,22.2,30.64,South,190,7.0,7.0,29,0.00,,,0.00,Wunderground v.1.15,2013-05-02 02:34:00,
2013-05-01 19:40:00,53.6,22.1,30.64,South,181,4.0,6.0,29,0.00,,,0.00,Wunderground v.1.15,2013-05-02 02:40:00,
2013-05-01 19:45:00,53.5,22.8,30.64,South,181,6.0,6.0,30,0.00,,,0.00,Wunderground v.1.15,2013-05-02 02:45:00,
2013-05-01 19:50:00,53.2,22.5,30.64,South,186,6.0,6.0,30,0.00,,,0.00,Wunderground v.1.15,2013-05-02 02:50:00,
2013-05-01 19:55:00,53.0,22.4,30.64,SSW,195,7.0,7.0,30,0.00,,,0.00,Wunderground v.1.15,2013-05-02 02:55:00,
2013-05-01 20:00:00,52.8,23.0,30.64,SSW,194,6.0,6.0,31,0.00,,,0.00,Wunderground v.1.15,2013-05-02 03:00:00,
2013-05-01 20:05:00,52.5,22.7,30.65,South,186,5.0,7.0,31,0.00,,,0.00,Wunderground v.1.15,2013-05-02 03:05:00,
2013-05-01 20:10:00,52.4,22.6,30.65,South,187,5.0,7.0,31,0.00,,,0.00,Wunderground v.1.15,2013-05-02 03:10:00,
2013-05-01 20:15:00,52.1,22.3,30.65,South,181,6.0,9.0,31,0.00,,,0.00,Wunderground v.1.15,2013-05-02 03:15:00,
2013-05-01 20:20:00,51.7,22.8,30.65,South,186,8.0,8.0,32,0.00,,,0.00,Wunderground v.1.15,2013-05-02 03:20:00,
2013-05-01 20:25:00,51.4,22.5,30.65,South,191,6.0,9.0,32,0.00,,,0.00,Wunderground v.1.15,2013-05-02 03:25:00,
2013-05-01 20:30:00,51.3,22.4,30.65,South,178,7.0,8.0,32,0.00,,,0.00,Wunderground v.1.15,2013-05-02 03:30:00,
2013-05-01 20:35:00,51.2,23.0,30.65,South,180,7.0,8.0,33,0.00,,,0.00,Wunderground v.1.15,2013-05-02 03:35:00,
2013-05-01 20:40:00,51.1,23.0,30.66,South,180,7.0,7.0,33,0.00,,,0.00,Wunderground v.1.15,2013-05-02 03:40:00,
2013-05-01 20:45:00,50.9,22.8,30.66,South,184,7.0,9.0,33,0.00,,,0.00,Wunderground v.1.15,2013-05-02 03:45:00,
2013-05-01 20:50:00,50.8,22.7,30.66,South,184,7.0,7.0,33,0.00,,,0.00,Wunderground v.1.15,2013-05-02 03:50:00,
2013-05-01 20:55:00,50.7,22.6,30.66,South,180,5.0,8.0,33,0.00,,,0.00,Wunderground v.1.15,2013-05-02 03:55:00,
2013-05-01 21:00:00,50.5,23.1,30.66,South,173,7.0,7.0,34,0.00,,,0.00,Wunderground v.1.15,2013-05-02 04:00:00,
2013-05-01 21:01:00,50.5,23.1,30.66,South,173,5.0,7.0,34,0.00,,,0.00,Wunderground v.1.15,2013-05-02 04:01:00,
2013-05-01 21:02:00,50.5,23.1,30.66,South,177,6.0,7.0,34,0.00,,,0.00,Wunderground v.1.15,2013-05-02 04:02:00,
2013-05-01 21:07:00,50.4,23.1,30.66,South,184,9.0,9.0,34,0.00,,,0.00,Wunderground v.1.15,2013-05-02 04:07:00,
2013-05-01 21:12:00,50.3,23.0,30.67,South,175,6.0,8.0,34,0.00,,,0.00,Wunderground v.1.15,2013-05-02 04:12:00,
2013-05-01 21:17:00,50.3,23.0,30.66,South,177,6.0,8.0,34,0.00,,,0.00,Wunderground v.1.15,2013-05-02 04:17:00,
2013-05-01 21:22:00,50.2,22.9,30.67,South,170,6.0,8.0,34,0.00,,,0.00,Wunderground v.1.15,2013-05-02 04:22:00,
2013-05-01 21:27:00,49.9,23.3,30.67,South,172,7.0,9.0,35,0.00,,,0.00,Wunderground v.1.15,2013-05-02 04:27:00,
2013-05-01 21:32:00,49.8,23.2,30.67,South,182,7.0,8.0,35,0.00,,,0.00,Wunderground v.1.15,2013-05-02 04:32:00,
2013-05-01 21:37:00,49.5,22.9,30.67,South,189,7.0,9.0,35,0.00,,,0.00,Wunderground v.1.15,2013-05-02 04:37:00,
2013-05-01 21:42:00,49.2,23.4,30.67,South,182,5.0,9.0,36,0.00,,,0.00,Wunderground v.1.15,2013-05-02 04:42:00,
2013-05-01 21:47:00,49.0,23.2,30.67,South,189,7.0,9.0,36,0.00,,,0.00,Wunderground v.1.15,2013-05-02 04:47:00,
2013-05-01 21:52:00,48.8,23.0,30.67,South,180,6.0,8.0,36,0.00,,,0.00,Wunderground v.1.15,2013-05-02 04:52:00,
2013-05-01 21:57:00,48.7,22.9,30.67,South,181,5.0,8.0,36,0.00,,,0.00,Wunderground v.1.15,2013-05-02 04:57:00,
2013-05-01 22:02:00,48.7,22.9,30.67,South,182,5.0,7.0,36,0.00,,,0.00,Wunderground v.1.15,2013-05-02 05:02:00,
2013-05-01 22:07:00,48.7,22.9,30.67,South,184,6.0,7.0,36,0.00,,,0.00,Wunderground v.1.15,2013-05-02 05:07:00,
2013-05-01 22:12:00,48.7,22.9,30.67,South,189,6.0,8.0,36,0.00,,,0.00,Wunderground v.1.15,2013-05-02 05:12:00,
2013-05-01 22:17:00,48.6,23.5,30.67,SSW,193,7.0,8.0,37,0.00,,,0.00,Wunderground v.1.15,2013-05-02 05:17:00,
2013-05-01 22:22:00,48.6,23.5,30.67,South,190,5.0,9.0,37,0.00,,,0.00,Wunderground v.1.15,2013-05-02 05:22:00,
2013-05-01 22:28:00,48.7,23.6,30.67,South,190,5.0,9.0,37,0.00,,,0.00,Wunderground v.1.15,2013-05-02 05:28:00,
2013-05-01 22:33:00,48.5,23.4,30.67,SSW,193,6.0,7.0,37,0.00,,,0.00,Wunderground v.1.15,2013-05-02 05:33:00,
2013-05-01 22:38:00,48.2,23.1,30.67,SSW,193,5.0,7.0,37,0.00,,,0.00,Wunderground v.1.15,2013-05-02 05:38:00,
2013-05-01 22:44:00,47.9,23.5,30.67,SSW,193,6.0,7.0,38,0.00,,,0.00,Wunderground v.1.15,2013-05-02 05:44:00,
2013-05-01 22:49:00,47.7,23.3,30.67,South,187,5.0,7.0,38,0.00,,,0.00,Wunderground v.1.15,2013-05-02 05:49:00,
2013-05-01 22:54:00,47.3,23.6,30.67,South,187,5.0,6.0,39,0.00,,,0.00,Wunderground v.1.15,2013-05-02 05:54:00,
2013-05-01 22:59:00,47.0,23.9,30.67,South,180,6.0,7.0,40,0.00,,,0.00,Wunderground v.1.15,2013-05-02 05:59:00,
2013-05-01 23:04:00,46.7,23.6,30.67,South,175,5.0,7.0,40,0.00,,,0.00,Wunderground v.1.15,2013-05-02 06:04:00,
2013-05-01 23:09:00,46.4,23.9,30.67,South,175,5.0,7.0,41,0.00,,,0.00,Wunderground v.1.15,2013-05-02 06:09:00,
2013-05-01 23:14:00,46.0,23.6,30.67,South,175,4.0,6.0,41,0.00,,,0.00,Wunderground v.1.15,2013-05-02 06:14:00,
2013-05-01 23:19:00,45.9,24.1,30.67,South,175,4.0,7.0,42,0.00,,,0.00,Wunderground v.1.15,2013-05-02 06:19:00,
2013-05-01 23:24:00,45.8,24.0,30.68,South,176,3.0,6.0,42,0.00,,,0.00,Wunderground v.1.15,2013-05-02 06:24:00,
2013-05-01 23:29:00,45.6,23.8,30.68,South,172,7.0,8.0,42,0.00,,,0.00,Wunderground v.1.15,2013-05-02 06:29:00,
2013-05-01 23:34:00,45.6,23.8,30.67,South,184,7.0,8.0,42,0.00,,,0.00,Wunderground v.1.15,2013-05-02 06:34:00,
2013-05-01 23:39:00,45.4,23.6,30.68,South,180,5.0,8.0,42,0.00,,,0.00,Wunderground v.1.15,2013-05-02 06:39:00,
2013-05-01 23:44:00,45.1,23.9,30.67,South,180,7.0,7.0,43,0.00,,,0.00,Wunderground v.1.15,2013-05-02 06:44:00,
2013-05-01 23:49:00,45.1,23.3,30.68,South,180,6.0,7.0,42,0.00,,,0.00,Wunderground v.1.15,2013-05-02 06:49:00,
2013-05-01 23:54:00,45.1,23.3,30.68,South,183,6.0,7.0,42,0.00,,,0.00,Wunderground v.1.15,2013-05-02 06:54:00,
2013-05-01 23:59:00,45.3,23.5,30.67,South,184,5.0,7.0,42,0.00,,,0.00,Wunderground v.1.15,2013-05-02 06:59:00,